Flight Track Log - Related Links

Times and Time Zones

All times are in EST time to prevent confusion due to time zone crossing. See the AAL180 flight status page for this flight to view local times or setup timezone preferences in your user account.

Time Position Orientation Groundspeed Altitude Reporting Facility
EST Latitude Longitude Course Direction KTS MPH feet Rate Location/Type
07:45PM 33.9359 -118.4177 263° West 161 185 1,000  Level FlightAware ADS-B
07:45PM 33.9344 -118.4385 267° West 168 193 1,600 1,395 Climbing FlightAware ADS-B
07:46PM 33.9332 -118.4586 265° West 190 219 2,000 1,615 Climbing FlightAware ADS-B
07:46PM 33.9315 -118.4677 256° West 199 229 2,300 1,680 Climbing FlightAware ADS-B
07:46PM 33.9251 -118.4920 252° West 229 264 2,700 1,286 Climbing FlightAware ADS-B
07:46PM 33.9205 -118.5092 252° West 252 290 3,200 2,000 Climbing FlightAware ADS-B
07:47PM 33.9106 -118.5439 250° West 270 311 4,100 3,286 Climbing FlightAware ADS-B
07:47PM 33.9017 -118.5682 224° Southwest 262 302 5,500 3,667 Climbing FlightAware ADS-B
07:47PM 33.8831 -118.5851 199° South 264 304 6,300 3,000 Climbing FlightAware ADS-B
07:48PM 33.8477 -118.5808 155° Southeast 281 323 7,600 2,571 Climbing FlightAware ADS-B
07:48PM 33.8356 -118.5690 125° Southeast 292 336 8,100 2,700 Climbing FlightAware ADS-B
07:48PM 33.8302 -118.5584 117° Southeast 295 339 8,500 2,455 Climbing FlightAware ADS-B
07:48PM 33.8266 -118.5309 86° East 313 360 9,000 1,969 Climbing FlightAware ADS-B
07:49PM 33.8731 -118.4717 27° Northeast 329 379 10,600 1,888 Climbing FlightAware ADS-B
07:50PM 33.9254 -118.4387 33° Northeast 355 409 11,800 1,714 Climbing FlightAware ADS-B
07:50PM 33.9465 -118.4167 51° Northeast 368 423 12,200 1,895 Climbing FlightAware ADS-B
07:50PM 33.9653 -118.3796 61° Northeast 380 437 13,000 1,727 Climbing FlightAware ADS-B
07:51PM 34.0054 -118.3004 57° Northeast 399 459 14,100 1,841 Climbing FlightAware ADS-B
07:52PM 34.0596 -118.2109 55° Northeast 422 486 15,700 2,764 Climbing FlightAware ADS-B
07:53PM 34.1092 -118.1228 56° Northeast 404 465 18,200 3,181 Climbing FlightAware ADS-B
07:53PM 34.1495 -118.0520 55° Northeast 390 449 20,100 2,304 Climbing FlightAware ADS-B
07:54PM 34.2222 -117.9212 56° Northeast 393 452 22,500 1,385 Climbing FlightAware ADS-B
07:56PM 34.2928 -117.7947 56° Northeast 433 498 23,400 850 Climbing FlightAware ADS-B
07:59PM 34.5170 -117.3985 56° Northeast 483 556 26,100 927 Climbing FlightAware ADS-B
07:59PM 34.5689 -117.3264 49° Northeast 488 562 26,800 1,111 Climbing FlightAware ADS-B
08:00PM 34.6455 -117.2194 49° Northeast 496 571 27,600 1,091 Climbing FlightAware ADS-B
08:01PM 34.7260 -117.1068 49° Northeast 496 571 28,600 1,200 Climbing FlightAware ADS-B
08:02PM 34.7804 -117.0305 49° Northeast 492 566 29,400 1,188 Climbing FlightAware ADS-B
08:03PM 34.8615 -116.9171 49° Northeast 491 565 30,500 897 Climbing FlightAware ADS-B
08:03PM 34.9392 -116.8073 49° Northeast 497 572 31,000 353 Climbing FlightAware ADS-B
08:04PM 34.9813 -116.7483 49° Northeast 500 575 31,000 350 Level FlightAware ADS-B
08:06PM 35.1458 -116.5149 50° Northeast 502 578 31,800 578 Climbing FlightAware ADS-B
08:07PM 35.2506 -116.3653 50° Northeast 518 596 32,600 720 Climbing FlightAware ADS-B
08:07PM 35.2997 -116.2947 50° Northeast 501 577 33,000 242 Climbing FlightAware ADS-B
08:08PM 35.3992 -116.1523 50° Northeast 502 578 33,000  Level FlightAware ADS-B
08:09PM 35.4991 -116.0084 50° Northeast 497 572 33,000  Level FlightAware ADS-B
08:10PM 35.5488 -115.9365 50° Northeast 496 571 33,000  Level FlightAware ADS-B
08:11PM 35.6551 -115.7827 51° Northeast 488 562 33,000  Level FlightAware ADS-B
08:12PM 35.7525 -115.6410 51° Northeast 485 558 33,000  Level FlightAware ADS-B
08:13PM 35.8481 -115.5012 51° Northeast 479 551 33,000  Level FlightAware ADS-B
08:14PM 35.8937 -115.4341 51° Northeast 485 558 33,000  Level FlightAware ADS-B
08:15PM 35.9414 -115.3640 51° Northeast 488 562 33,000  Level FlightAware ADS-B
08:15PM 35.9911 -115.2912 51° Northeast 485 558 33,000  Level FlightAware ADS-B
08:16PM 36.0436 -115.2137 51° Northeast 487 560 33,000  Level FlightAware ADS-B
08:17PM 36.1263 -115.0610 61° Northeast 495 570 33,000  Level FlightAware ADS-B
08:17PM 36.1647 -114.9795 61° Northeast 493 567 33,000  Level FlightAware ADS-B
08:18PM 36.2033 -114.8972 61° Northeast 489 563 33,000  Level FlightAware ADS-B
08:19PM 36.2766 -114.7395 60° Northeast 493 567 33,000  Level FlightAware ADS-B
08:20PM 36.3222 -114.6416 60° Northeast 493 567 33,000  Level FlightAware ADS-B
08:20PM 36.3605 -114.5590 60° Northeast 497 572 33,000  Level FlightAware ADS-B
08:21PM 36.4366 -114.3938 61° Northeast 494 568 33,000  Level FlightAware ADS-B
08:22PM 36.5117 -114.2309 60° Northeast 496 571 33,000  Level FlightAware ADS-B
08:23PM 36.5474 -114.1532 60° Northeast 494 568 33,000  Level FlightAware ADS-B
08:24PM 36.5867 -114.0668 61° Northeast 491 565 33,000  Level FlightAware ADS-B
08:24PM 36.6213 -113.9910 61° Northeast 495 570 33,000  Level FlightAware ADS-B
08:25PM 36.6599 -113.9060 61° Northeast 493 567 33,000  Level FlightAware ADS-B
08:25PM 36.6967 -113.8243 61° Northeast 496 571 33,000  Level FlightAware ADS-B
08:26PM 36.7336 -113.7424 62° Northeast 481 554 33,000  Level FlightAware ADS-B
08:26PM 36.7689 -113.6641 62° Northeast 477 549 33,000  Level FlightAware ADS-B
08:27PM 36.8118 -113.5689 61° Northeast 485 558 33,000  Level FlightAware ADS-B
08:28PM 36.8798 -113.4174 61° Northeast 488 562 33,000  Level FlightAware ADS-B
08:29PM 36.9464 -113.2687 61° Northeast 489 563 33,000  Level FlightAware ADS-B
08:30PM 37.0173 -113.1087 61° Northeast 490 564 33,000  Level FlightAware ADS-B
08:31PM 37.0673 -112.9959 62° Northeast 489 563 33,000  Level FlightAware ADS-B
08:31PM 37.1027 -112.9153 62° Northeast 487 560 33,000  Level FlightAware ADS-B
08:32PM 37.1501 -112.8075 61° Northeast 490 564 33,000  Level FlightAware ADS-B
08:33PM 37.2100 -112.6707 62° Northeast 484 557 33,000  Level FlightAware ADS-B
08:34PM 37.2846 -112.4995 62° Northeast 485 558 33,000  Level FlightAware ADS-B
08:35PM 37.3231 -112.4115 62° Northeast 487 560 33,000  Level FlightAware ADS-B
08:35PM 37.3569 -112.3332 62° Northeast 488 562 33,000  Level FlightAware ADS-B
08:36PM 37.4259 -112.1729 62° Northeast 491 565 33,000  Level FlightAware ADS-B
08:37PM 37.4634 -112.0859 63° Northeast 485 558 33,000  Level FlightAware ADS-B
08:37PM 37.5018 -111.9983 60° Northeast 484 557 33,000  Level FlightAware ADS-B
08:38PM 37.5650 -111.8743 57° Northeast 490 564 33,000  Level FlightAware ADS-B
08:39PM 37.6397 -111.7284 57° Northeast 479 551 33,000  Level FlightAware ADS-B
08:41PM 37.7905 -111.4321 58° Northeast 482 555 33,000  Level FlightAware ADS-B
08:43PM 37.8647 -111.2854 58° Northeast 482 555 33,000  Level FlightAware ADS-B
08:44PM 37.9430 -111.1292 58° Northeast 482 555 33,000  Level FlightAware ADS-B
08:45PM 38.0176 -110.9805 58° Northeast 484 557 33,000  Level FlightAware ADS-B
08:46PM 38.0980 -110.8192 58° Northeast 485 558 33,000  Level FlightAware ADS-B (KGUC)
08:47PM 38.1588 -110.6969 58° Northeast 485 558 33,000  Level FlightAware ADS-B (KGUC)
08:47PM 38.1897 -110.6341 58° Northeast 485 558 33,000  Level FlightAware ADS-B (KGUC)
08:48PM 38.2291 -110.5542 58° Northeast 483 556 33,000  Level FlightAware ADS-B
08:48PM 38.2762 -110.4587 58° Northeast 478 550 33,000  Level FlightAware ADS-B
08:49PM 38.3120 -110.3862 58° Northeast 479 551 33,000  Level FlightAware ADS-B
08:49PM 38.3590 -110.2900 58° Northeast 478 550 33,000  Level FlightAware ADS-B
08:50PM 38.3939 -110.2185 58° Northeast 477 549 33,000  Level FlightAware ADS-B
08:51PM 38.4396 -110.1251 58° Northeast 479 551 33,000  Level FlightAware ADS-B (KGUC)
08:51PM 38.4798 -110.0423 58° Northeast 480 552 33,000  Level FlightAware ADS-B
08:52PM 38.5083 -109.9791 62° Northeast 479 551 33,000  Level FlightAware ADS-B
08:52PM 38.5158 -109.9603 62° Northeast 479 551 33,000  Level FlightAware ADS-B
08:52PM 38.5489 -109.8759 63° Northeast 476 548 33,000  Level FlightAware ADS-B (KGUC)
08:53PM 38.5828 -109.7888 63° Northeast 479 551 33,000  Level FlightAware ADS-B
08:53PM 38.6185 -109.6975 64° Northeast 479 551 33,000  Level FlightAware ADS-B (KGUC)
08:54PM 38.6576 -109.5971 64° Northeast 475 547 33,000  Level FlightAware ADS-B (KGUC)
08:55PM 38.6866 -109.5222 64° Northeast 476 548 33,000  Level FlightAware ADS-B (KGUC)
08:55PM 38.7165 -109.4448 64° Northeast 477 549 33,000  Level FlightAware ADS-B (KGUC)
08:56PM 38.7449 -109.3712 64° Northeast 473 544 33,000  Level FlightAware ADS-B (KGUC)
08:56PM 38.7842 -109.2693 64° Northeast 475 547 33,000  Level FlightAware ADS-B (KGUC)
08:57PM 38.8129 -109.1945 64° Northeast 473 544 33,000  Level FlightAware ADS-B (KGUC)
08:57PM 38.8414 -109.1199 64° Northeast 478 550 33,000  Level FlightAware ADS-B (KGUC)
08:58PM 38.8711 -109.0419 64° Northeast 479 551 33,000  Level FlightAware ADS-B (KGUC)
08:58PM 38.8993 -108.9678 64° Northeast 476 548 33,000  Level FlightAware ADS-B (KGUC)
08:59PM 38.9291 -108.8899 64° Northeast 475 547 33,000  Level FlightAware ADS-B (KGUC)
08:59PM 38.9573 -108.8152 64° Northeast 475 547 33,000  Level FlightAware ADS-B (KGUC)
09:00PM 38.9857 -108.7401 64° Northeast 475 547 33,000  Level FlightAware ADS-B (KGUC)
09:00PM 39.0147 -108.6632 64° Northeast 473 544 33,000  Level FlightAware ADS-B (KGUC)
09:01PM 39.0438 -108.5861 64° Northeast 472 543 33,000  Level FlightAware ADS-B (KGUC)
09:01PM 39.0804 -108.4882 64° Northeast 474 545 33,000  Level FlightAware ADS-B
09:02PM 39.1094 -108.4103 65° Northeast 473 544 33,000  Level FlightAware ADS-B
09:02PM 39.1371 -108.3361 64° Northeast 475 547 33,000  Level FlightAware ADS-B (KGUC)
09:03PM 39.1662 -108.2583 65° Northeast 474 545 33,000  Level FlightAware ADS-B (KGUC)
09:03PM 39.1908 -108.1914 65° Northeast 478 550 33,000  Level FlightAware ADS-B (KGUC)
09:04PM 39.2218 -108.1076 65° Northeast 479 551 33,000  Level FlightAware ADS-B (KGUC)
09:04PM 39.2517 -108.0269 65° Northeast 476 548 33,000  Level FlightAware ADS-B (KGUC)
09:05PM 39.2782 -107.9547 65° Northeast 476 548 33,000  Level FlightAware ADS-B (KGUC)
09:05PM 39.3081 -107.8735 65° Northeast 478 550 33,000  Level FlightAware ADS-B (KGUC)
09:06PM 39.3368 -107.7951 65° Northeast 478 550 33,000  Level FlightAware ADS-B (KGUC)
09:07PM 39.3721 -107.6982 65° Northeast 481 554 33,000  Level FlightAware ADS-B (KGUC)
09:07PM 39.4011 -107.6187 65° Northeast 481 554 33,000  Level FlightAware ADS-B (KGUC)
09:08PM 39.4318 -107.5341 65° Northeast 478 550 33,000  Level FlightAware ADS-B
09:08PM 39.4600 -107.4566 65° Northeast 476 548 33,000  Level FlightAware ADS-B
09:09PM 39.4888 -107.3766 65° Northeast 478 550 33,000  Level FlightAware ADS-B
09:09PM 39.5172 -107.2974 65° Northeast 477 549 33,000  Level FlightAware ADS-B
09:10PM 39.5445 -107.2217 65° Northeast 479 551 33,000  Level FlightAware ADS-B
09:10PM 39.5738 -107.1396 65° Northeast 480 552 33,000  Level FlightAware ADS-B
09:11PM 39.6018 -107.0612 65° Northeast 479 551 33,000  Level FlightAware ADS-B (KEIK)
09:12PM 39.6513 -106.9225 65° Northeast 481 554 33,000  Level FlightAware ADS-B (KEIK)
09:12PM 39.6836 -106.8314 66° East 482 555 33,000  Level FlightAware ADS-B (KEIK)
09:13PM 39.7133 -106.7470 66° East 482 555 33,000  Level FlightAware ADS-B
09:13PM 39.7456 -106.6556 66° East 481 554 33,000  Level FlightAware ADS-B
09:14PM 39.7765 -106.5674 66° East 480 552 33,000  Level FlightAware ADS-B (KEIK)
09:14PM 39.8032 -106.4831 69° East 484 557 33,000  Level FlightAware ADS-B
09:15PM 39.8269 -106.4027 69° East 483 556 33,000  Level FlightAware ADS-B
09:15PM 39.8498 -106.3243 69° East 484 557 33,000  Level FlightAware ADS-B
09:16PM 39.8739 -106.2421 69° East 481 554 33,000  Level FlightAware ADS-B (KEIK)
09:17PM 39.9076 -106.1261 69° East 481 554 33,000  Level FlightAware ADS-B (KEIK)
09:17PM 39.9155 -106.0988 69° East 482 555 33,000  Level FlightAware ADS-B
09:17PM 39.9461 -105.9933 69° East 480 552 33,000  Level FlightAware ADS-B (ZSPD / PVG)
09:18PM 39.9729 -105.9006 70° East 480 552 33,000  Level FlightAware ADS-B
09:18PM 39.9973 -105.8152 70° East 478 550 33,000  Level FlightAware ADS-B (KEIK)
09:19PM 40.0221 -105.7287 70° East 476 548 33,000  Level FlightAware ADS-B (KEIK)
09:20PM 40.0508 -105.6280 70° East 476 548 33,000  Level FlightAware ADS-B (KEIK)
09:20PM 40.0762 -105.5394 70° East 484 557 33,000  Level FlightAware ADS-B
09:21PM 40.0889 -105.4942 70° East 482 555 33,000  Level FlightAware ADS-B (ZSPD / PVG)
09:21PM 40.1333 -105.3370 70° East 486 559 33,000  Level FlightAware ADS-B (KEIK)
09:22PM 40.1537 -105.2647 70° East 483 556 33,000  Level FlightAware ADS-B (KEIK)
09:23PM 40.1877 -105.1436 70° East 483 556 33,000  Level FlightAware ADS-B (KEIK)
09:23PM 40.2071 -105.0739 70° East 483 556 33,000  Level FlightAware ADS-B (KEIK)
09:24PM 40.2339 -104.9777 70° East 483 556 33,000  Level FlightAware ADS-B (KEIK)
09:24PM 40.2565 -104.8964 70° East 483 556 33,000  Level FlightAware ADS-B (KEIK)
09:25PM 40.2851 -104.7924 70° East 485 558 33,000  Level FlightAware ADS-B (ZSPD / PVG)
09:25PM 40.3089 -104.7062 70° East 484 557 33,000  Level FlightAware ADS-B
09:26PM 40.3367 -104.6053 70° East 485 558 33,000  Level FlightAware ADS-B (KEIK)
09:26PM 40.3597 -104.5206 70° East 484 557 33,000  Level FlightAware ADS-B (KEIK)
09:27PM 40.3816 -104.4401 70° East 483 556 33,000  Level FlightAware ADS-B (KEIK)
09:27PM 40.4050 -104.3542 70° East 484 557 33,000  Level FlightAware ADS-B (KEIK)
09:28PM 40.4355 -104.2416 71° East 486 559 33,000  Level FlightAware ADS-B (KEIK)
09:29PM 40.4592 -104.1535 71° East 489 563 33,000  Level FlightAware ADS-B
09:29PM 40.4908 -104.0349 71° East 488 562 33,000  Level FlightAware ADS-B (KEIK)
09:30PM 40.5159 -103.9400 71° East 486 559 33,000  Level FlightAware ADS-B (KEIK)
09:30PM 40.5394 -103.8493 71° East 486 559 33,000  Level FlightAware ADS-B (KEIK)
09:31PM 40.5598 -103.7704 71° East 485 558 33,000  Level FlightAware ADS-B (KEIK)
09:31PM 40.5816 -103.6855 71° East 485 558 33,000  Level FlightAware ADS-B (KEIK)
09:32PM 40.6019 -103.6065 71° East 483 556 33,000  Level FlightAware ADS-B
09:32PM 40.6251 -103.5159 71° East 486 559 33,000  Level FlightAware ADS-B (KEIK)
09:33PM 40.6487 -103.4234 72° East 485 558 33,000  Level FlightAware ADS-B (KEIK)
09:34PM 40.6755 -103.3184 72° East 484 557 33,000  Level FlightAware ADS-B (ZSPD / PVG)
09:34PM 40.6973 -103.2317 72° East 485 558 33,000  Level FlightAware ADS-B
09:35PM 40.7207 -103.1379 72° East 484 557 33,000  Level FlightAware ADS-B (KEIK)
09:35PM 40.7420 -103.0532 72° East 484 557 33,000  Level FlightAware ADS-B (KEIK)
09:36PM 40.7629 -102.9704 72° East 479 551 33,000  Level FlightAware ADS-B (KEIK)
09:36PM 40.7869 -102.8735 72° East 475 547 33,000  Level FlightAware ADS-B (KEIK)
09:37PM 40.8081 -102.7883 72° East 474 545 33,000  Level FlightAware ADS-B (KEIK)
09:37PM 40.8272 -102.7115 72° East 476 548 33,000  Level FlightAware ADS-B
09:38PM 40.8585 -102.5834 72° East 475 547 33,000  Level FlightAware ADS-B
09:39PM 40.8862 -102.4707 72° East 475 547 33,000  Level FlightAware ADS-B (KEIK)
09:39PM 40.9056 -102.3912 72° East 477 549 33,000  Level FlightAware ADS-B (KEIK)
09:40PM 40.9273 -102.3017 72° East 478 550 33,000  Level FlightAware ADS-B (KEIK)
09:40PM 40.9445 -102.2313 72° East 479 551 33,000  Level FlightAware ADS-B
09:41PM 40.9774 -102.0947 72° East 479 551 33,000  Level FlightAware ADS-B (KEIK)
09:41PM 40.9920 -102.0334 72° East 472 543 33,000  Level FlightAware ADS-B
09:42PM 41.0027 -101.9889 72° East 469 540 33,000  Level FlightAware ADS-B (KEIK)
09:42PM 41.0369 -101.8583 71° East 471 542 33,000  Level FlightAware ADS-B (KEIK)
09:43PM 41.0740 -101.7151 71° East 474 545 33,000  Level FlightAware ADS-B (KEIK)
09:44PM 41.1190 -101.5395 71° East 474 545 33,000  Level FlightAware ADS-B (KEIK)
09:45PM 41.1420 -101.4494 71° East 474 545 33,000  Level FlightAware ADS-B (KEIK)
09:45PM 41.1623 -101.3699 72° East 475 547 33,000  Level FlightAware ADS-B (KEIK)
09:46PM 41.1927 -101.2498 72° East 475 547 33,000  Level FlightAware ADS-B (KEIK)
09:47PM 41.2191 -101.1449 72° East 473 544 33,000  Level FlightAware ADS-B (KEIK)
09:47PM 41.2427 -101.0509 72° East 474 545 33,000  Level FlightAware ADS-B (KEIK)
09:48PM 41.2712 -100.9366 72° East 477 549 33,000  Level FlightAware ADS-B (KEIK)
09:49PM 41.3053 -100.7997 72° East 476 548 33,000  Level FlightAware ADS-B (KEIK)
09:49PM 41.3272 -100.7112 72° East 475 547 33,000  Level FlightAware ADS-B (KEIK)
09:50PM 41.3522 -100.6153 72° East 471 542 33,000  Level Minneapolis Center
09:51PM 41.3767 -100.5119 72° East 474 545 33,000  Level Denver Center
09:52PM 41.4153 -100.3525 72° East 472 543 33,000  Level Denver Center
09:53PM 41.4478 -100.2175 72° East 475 547 33,000  Level Denver Center
09:54PM 41.4997 -100.0033 72° East 476 548 33,000  Level Denver Center
09:55PM 41.5464 -99.8161 72° East 475 547 33,000  Level Denver Center
09:56PM 41.5842 -99.6778 70° East 474 545 33,000  Level Denver Center
09:57PM 41.6353 -99.4764 71° East 475 547 33,000  Level Denver Center
09:58PM 41.6775 -99.3083 71° East 474 545 33,000  Level Denver Center
09:59PM 41.7203 -99.1389 71° East 476 548 33,000  Level Denver Center
10:00PM 41.7628 -98.9697 71° East 477 549 33,000  Level Denver Center
10:01PM 41.8047 -98.7989 72° East 478 550 33,000  Level Denver Center
10:02PM 41.8467 -98.6283 72° East 479 551 33,000  Level Denver Center
10:03PM 41.8883 -98.4586 72° East 477 549 33,000  Level Denver Center
10:04PM 41.9511 -98.2022 72° East 477 549 33,000  Level Minneapolis Center
10:05PM 41.9964 -98.0169 72° East 477 549 33,000  Level Minneapolis Center
10:06PM 42.0267 -97.8581 76° East 477 549 33,000  Level Minneapolis Center
10:07PM 42.0578 -97.6806 77° East 484 557 33,000  Level Minneapolis Center
10:08PM 42.0903 -97.5022 76° East 485 558 33,000  Level Minneapolis Center
10:09PM 42.1222 -97.3233 76° East 487 560 33,000  Level Minneapolis Center
10:11PM 42.1542 -97.1439 76° East 488 562 33,000  Level Minneapolis Center
10:12PM 42.1897 -96.9300 77° East 488 562 33,000  Level Minneapolis Center
10:13PM 42.2219 -96.7472 77° East 491 565 33,000  Level Minneapolis Center
10:19PM 42.4068 -95.6265 78° East 501 577 33,000  Level FlightAware ADS-B (LPVM)
10:24PM 42.4720 -94.6000 88° East 518 596 33,000  Level FlightAware ADS-B
10:25PM 42.4759 -94.4814 88° East 516 594 33,000  Level FlightAware ADS-B
10:25PM 42.4769 -94.4515 88° East 518 596 33,000  Level FlightAware ADS-B
10:26PM 42.4830 -94.2518 88° East 516 594 33,000  Level FlightAware ADS-B
10:26PM 42.4860 -94.1508 88° East 517 595 33,000  Level FlightAware ADS-B
10:27PM 42.4904 -93.9931 88° East 519 597 33,000  Level FlightAware ADS-B
10:28PM 42.4926 -93.9100 88° East 521 600 33,000  Level FlightAware ADS-B
10:28PM 42.4956 -93.7970 88° East 519 597 33,000  Level FlightAware ADS-B
10:29PM 42.4972 -93.7329 88° East 521 600 33,000  Level FlightAware ADS-B
10:29PM 42.5002 -93.6126 88° East 520 598 33,000  Level FlightAware ADS-B
10:30PM 42.5037 -93.4662 88° East 520 598 33,000  Level FlightAware ADS-B
10:30PM 42.5057 -93.3790 88° East 520 598 33,000  Level FlightAware ADS-B
10:31PM 42.5090 -93.2274 88° East 523 602 33,000  Level FlightAware ADS-B
10:32PM 42.5112 -93.1208 88° East 525 604 33,000  Level FlightAware ADS-B
10:32PM 42.5122 -93.0687 89° East 526 605 33,000  Level FlightAware ADS-B
10:33PM 42.5136 -92.9972 89° East 527 606 33,000  Level FlightAware ADS-B
10:33PM 42.5168 -92.8265 89° East 532 612 33,000  Level FlightAware ADS-B (SBMG / MGF)
10:34PM 42.5203 -92.6099 89° East 535 616 33,000  Level FlightAware ADS-B (SBMG / MGF)
10:35PM 42.5224 -92.4756 89° East 537 618 33,000  Level FlightAware ADS-B (SBMG / MGF)
10:36PM 42.5241 -92.3443 89° East 539 620 33,000  Level FlightAware ADS-B (SBMG / MGF)
10:36PM 42.5259 -92.2038 89° East 540 621 33,000  Level FlightAware ADS-B (SBMG / MGF)
10:37PM 42.5274 -92.0746 89° East 542 624 33,000  Level FlightAware ADS-B (SBMG / MGF)
10:38PM 42.5291 -91.9320 89° East 546 628 33,000  Level FlightAware ADS-B (SBMG / MGF)
10:38PM 42.5300 -91.8304 89° East 548 631 33,000  Level FlightAware ADS-B (LPVM)
10:39PM 42.5309 -91.7234 89° East 548 631 33,000  Level FlightAware ADS-B (SBMG / MGF)
10:39PM 42.5317 -91.6017 90° East 549 632 33,000  Level FlightAware ADS-B (SBMG / MGF)
10:40PM 42.5325 -91.4509 90° East 546 628 33,000  Level FlightAware ADS-B (SBMG / MGF)
10:40PM 42.5328 -91.3639 90° East 542 624 33,000  Level FlightAware ADS-B (LPVM)
10:41PM 42.5336 -91.2511 90° East 541 623 33,000  Level FlightAware ADS-B (SBMG / MGF)
10:41PM 42.5340 -91.1540 90° East 542 624 33,000  Level FlightAware ADS-B (LPVM)
10:42PM 42.5342 -91.0439 90° East 542 624 33,000  Level FlightAware ADS-B (SBMG / MGF)
10:43PM 42.5343 -90.9251 90° East 540 621 33,000  Level FlightAware ADS-B
10:43PM 42.5343 -90.8180 90° East 539 620 33,000  Level FlightAware ADS-B
10:44PM 42.5343 -90.7167 90° East 540 621 33,000  Level FlightAware ADS-B (SBMG / MGF)
10:44PM 42.5342 -90.5941 90° East 542 624 33,000  Level FlightAware ADS-B
10:45PM 42.5339 -90.4760 90° East 542 624 33,000  Level FlightAware ADS-B (LPVM)
10:46PM 42.5333 -90.3189 90° East 541 623 33,000  Level FlightAware ADS-B
10:46PM 42.5325 -90.1759 90° East 537 618 33,000  Level FlightAware ADS-B (SBMG / MGF)
10:47PM 42.5318 -90.0302 91° East 537 618 33,000  Level FlightAware ADS-B
10:48PM 42.5309 -89.9085 91° East 538 619 33,000  Level FlightAware ADS-B
10:48PM 42.5301 -89.8072 91° East 541 623 33,000  Level FlightAware ADS-B
10:49PM 42.5291 -89.7035 91° East 541 623 33,000  Level FlightAware ADS-B
10:49PM 42.5278 -89.5891 91° East 542 624 33,000  Level FlightAware ADS-B
10:50PM 42.5268 -89.4872 91° East 543 625 33,000  Level FlightAware ADS-B
10:50PM 42.5256 -89.3897 91° East 542 624 33,000  Level FlightAware ADS-B
10:51PM 42.5241 -89.2773 91° East 544 626 33,000  Level FlightAware ADS-B
10:51PM 42.5228 -89.1728 91° East 545 627 33,000  Level FlightAware ADS-B
10:52PM 42.5212 -89.0582 91° East 545 627 33,000  Level FlightAware ADS-B
10:52PM 42.5197 -88.9571 91° East 544 626 33,000  Level FlightAware ADS-B
10:53PM 42.5175 -88.8372 91° East 545 627 33,000  Level FlightAware ADS-B
10:53PM 42.5171 -88.8163 92° East 546 628 33,000  Level FlightAware ADS-B (KMSN)
10:54PM 42.5136 -88.6217 91° East 546 628 33,000  Level FlightAware ADS-B
10:54PM 42.5129 -88.5883 91° East 547 629 33,000  Level FlightAware ADS-B (KMSN)
10:55PM 42.5112 -88.5038 92° East 546 628 33,000  Level FlightAware ADS-B
10:55PM 42.5089 -88.3894 92° East 545 627 33,000  Level FlightAware ADS-B (KMSN)
10:56PM 42.5055 -88.2350 92° East 547 629 33,000  Level FlightAware ADS-B
10:56PM 42.5029 -88.1216 92° East 546 628 33,000  Level FlightAware ADS-B
10:57PM 42.5001 -88.0057 92° East 547 629 33,000  Level FlightAware ADS-B
10:57PM 42.4992 -87.9619 91° East 546 628 33,000  Level FlightAware ADS-B
10:58PM 42.4997 -87.8633 90° East 542 624 33,000  Level FlightAware ADS-B
10:58PM 42.4999 -87.7417 90° East 542 624 33,000  Level FlightAware ADS-B
10:59PM 42.4997 -87.6373 90° East 542 624 33,000  Level FlightAware ADS-B
10:59PM 42.4993 -87.5261 90° East 545 627 33,000  Level FlightAware ADS-B
10:59PM 42.4989 -87.4779 90° East 544 626 33,000  Level FlightAware ADS-B
11:00PM 42.4982 -87.3647 90° East 546 628 33,000  Level FlightAware ADS-B
11:00PM 42.4982 -87.3647 91° East 544 626 33,000  Level FlightAware ADS-B
11:01PM 42.4974 -87.2030 90° East 545 627 33,000  Level FlightAware ADS-B
11:01PM 42.4966 -87.0838 91° East 547 629 33,000  Level FlightAware ADS-B
11:02PM 42.4958 -86.9796 91° East 547 629 33,000  Level FlightAware ADS-B
11:02PM 42.4948 -86.8715 91° East 549 632 33,000  Level FlightAware ADS-B
11:03PM 42.4929 -86.6851 91° East 549 632 33,000  Level FlightAware ADS-B
11:04PM 42.4914 -86.5782 91° East 549 632 33,000  Level FlightAware ADS-B
11:04PM 42.4902 -86.4753 91° East 549 632 33,000  Level FlightAware ADS-B
11:05PM 42.4887 -86.3629 91° East 550 633 33,000  Level FlightAware ADS-B
11:05PM 42.4872 -86.2486 91° East 551 634 33,000  Level FlightAware ADS-B
11:06PM 42.4861 -86.1828 91° East 550 633 33,000  Level FlightAware ADS-B
11:07PM 42.4846 -86.0806 92° East 542 624 33,000  Level FlightAware ADS-B
11:08PM 42.4769 -85.6719 92° East 542 624 33,000  Level FlightAware ADS-B
11:09PM 42.4748 -85.5652 92° East 544 626 33,000  Level FlightAware ADS-B
11:09PM 42.4726 -85.4618 92° East 544 626 33,000  Level FlightAware ADS-B
11:10PM 42.4700 -85.3507 92° East 546 628 33,000  Level FlightAware ADS-B
11:10PM 42.4677 -85.2480 92° East 547 629 33,000  Level FlightAware ADS-B
11:11PM 42.4647 -85.1283 92° East 547 629 33,000  Level FlightAware ADS-B
11:11PM 42.4619 -85.0226 92° East 543 625 33,000  Level FlightAware ADS-B
11:12PM 42.4593 -84.9124 92° East 543 625 33,000  Level FlightAware ADS-B
11:13PM 42.4563 -84.7980 92° East 546 628 33,000  Level FlightAware ADS-B
11:13PM 42.4527 -84.6655 92° East 545 627 33,000  Level FlightAware ADS-B
11:14PM 42.4482 -84.5174 93° East 547 629 33,000  Level FlightAware ADS-B
11:14PM 42.4446 -84.4044 93° East 547 629 33,000  Level FlightAware ADS-B
11:15PM 42.4412 -84.2948 93° East 548 631 33,000  Level FlightAware ADS-B
11:16PM 42.4368 -84.1618 93° East 550 633 33,000  Level FlightAware ADS-B
11:16PM 42.4326 -84.0399 93° East 549 632 33,000  Level FlightAware ADS-B
11:17PM 42.4287 -83.9263 93° East 549 632 33,000  Level FlightAware ADS-B
11:18PM 42.4194 -83.7744 95° East 548 631 33,000  Level FlightAware ADS-B
11:20PM 42.3837 -83.2645 96° East 547 629 33,000  Level FlightAware ADS-B (EPLB / LUZ)
11:21PM 42.3708 -83.0807 96° East 550 633 33,000  Level FlightAware ADS-B (EPLB / LUZ)
11:21PM 42.3663 -83.0200 95° East 548 631 33,000  Level FlightAware ADS-B (CYYZ)
11:22PM 42.3642 -82.9922 96° East 553 636 33,000  Level FlightAware ADS-B (EPLB / LUZ)
11:22PM 42.3559 -82.8818 95° East 554 638 33,000  Level FlightAware ADS-B (CYYZ)
11:22PM 42.3552 -82.8724 96° East 552 635 33,000  Level FlightAware ADS-B (EPLB / LUZ)
11:22PM 42.3481 -82.7776 96° East 551 634 33,000  Level FlightAware ADS-B (CYYZ)
11:23PM 42.3403 -82.6779 96° East 552 635 33,000  Level FlightAware ADS-B (EPLB / LUZ)
11:23PM 42.3403 -82.6779 96° East 553 636 33,000  Level FlightAware ADS-B (CYYZ)
11:23PM 42.3319 -82.5696 96° East 554 638 33,000  Level FlightAware ADS-B (CYYZ)
11:23PM 42.3319 -82.5696 96° East 553 636 33,000  Level FlightAware ADS-B (EPLB / LUZ)
11:24PM 42.3242 -82.4705 96° East 551 634 33,000  Level FlightAware ADS-B (CYYZ)
11:24PM 42.3212 -82.4335 96° East 549 632 33,000  Level FlightAware ADS-B (EPLB / LUZ)
11:24PM 42.3159 -82.3660 96° East 549 632 33,000  Level FlightAware ADS-B (CYYZ)
11:25PM 42.3130 -82.3282 96° East 550 633 33,000  Level FlightAware ADS-B (EPLB / LUZ)
11:25PM 42.3078 -82.2637 96° East 553 636 33,000  Level FlightAware ADS-B (CYYZ)
11:25PM 42.2994 -82.1582 96° East 557 641 33,000  Level FlightAware ADS-B (CYYZ)
11:26PM 42.2944 -82.0998 97° East 556 640 33,000  Level FlightAware ADS-B (EPLB / LUZ)
11:26PM 42.2908 -82.0561 96° East 556 640 33,000  Level FlightAware ADS-B (CYYZ)
11:26PM 42.2827 -81.9553 96° East 553 636 33,000  Level FlightAware ADS-B (CYYZ)
11:26PM 42.2816 -81.9422 96° East 551 634 33,000  Level FlightAware ADS-B (EPLB / LUZ)
11:27PM 42.2740 -81.8523 96° East 548 631 33,000  Level FlightAware ADS-B (CYYZ)
11:27PM 42.2651 -81.7489 96° East 549 632 33,000  Level FlightAware ADS-B (CYYZ)
11:28PM 42.2568 -81.6525 96° East 548 631 33,000  Level FlightAware ADS-B (CYYZ)
11:28PM 42.2477 -81.5481 96° East 545 627 33,000  Level FlightAware ADS-B (CYYZ)
11:29PM 42.2390 -81.4483 96° East 544 626 33,000  Level FlightAware ADS-B (CYYZ)
11:29PM 42.2300 -81.3460 96° East 546 628 33,000  Level FlightAware ADS-B (CYYZ)
11:30PM 42.2207 -81.2426 96° East 544 626 33,000  Level FlightAware ADS-B (CYYZ)
11:30PM 42.2120 -81.1464 97° East 546 628 33,000  Level FlightAware ADS-B (CYYZ)
11:31PM 42.2034 -81.0501 96° East 546 628 33,000  Level FlightAware ADS-B (CYYZ)
11:31PM 42.1935 -80.9419 97° East 549 632 33,000  Level FlightAware ADS-B (CYYZ)
11:32PM 42.1845 -80.8444 97° East 549 632 33,000  Level FlightAware ADS-B (EPLB / LUZ)
11:32PM 42.1841 -80.8397 97° East 549 632 33,000  Level FlightAware ADS-B (CYYZ)
11:32PM 42.1747 -80.7418 97° East 550 633 33,000  Level FlightAware ADS-B (CYYZ)
11:33PM 42.1721 -80.7139 97° East 549 632 33,000  Level FlightAware ADS-B (EPLB / LUZ)
11:33PM 42.1647 -80.6377 97° East 544 626 33,000 -231 Level FlightAware ADS-B (CYYZ)
11:33PM 42.1555 -80.5413 97° East 543 625 32,800 -364 Descending FlightAware ADS-B (CYYZ)
11:33PM 42.1538 -80.5236 98° East 542 624 32,800 -200 Level FlightAware ADS-B (EPLB / LUZ)
11:34PM 42.1454 -80.4359 97° East 543 625 32,700 -343 Descending FlightAware ADS-B (CYYZ)
11:34PM 42.1460 -80.4432 97° East 541 623 32,600 -400 Descending FlightAware ADS-B (EPLB / LUZ)
11:34PM 42.1360 -80.3378 97° East 543 625 32,500 -400 Descending FlightAware ADS-B (CYYZ)
11:35PM 42.1300 -80.2763 98° East 543 625 32,300 -400 Descending FlightAware ADS-B (EPLB / LUZ)
11:35PM 42.1260 -80.2367 97° East 543 625 32,300 -333 Level FlightAware ADS-B (CYYZ)
11:35PM 42.1160 -80.1356 97° East 543 625 32,100 -222 Descending FlightAware ADS-B (CYYZ)
11:36PM 42.0992 -79.9678 97° East 545 627 32,000 -74 Descending FlightAware ADS-B (CYYZ)
11:37PM 42.0894 -79.8706 97° East 542 624 32,000  Level FlightAware ADS-B (CYYZ)
11:37PM 42.0791 -79.7707 98° East 537 618 32,000  Level FlightAware ADS-B (CYYZ)
11:37PM 42.0776 -79.7568 97° East 535 616 32,000  Level FlightAware ADS-B (EPLB / LUZ)
11:38PM 42.0687 -79.6704 98° East 537 618 32,000  Level FlightAware ADS-B (CYYZ)
11:38PM 42.0640 -79.6254 98° East 538 619 32,000  Level FlightAware ADS-B (EPLB / LUZ)
11:38PM 42.0584 -79.5720 98° East 539 620 32,000  Level FlightAware ADS-B (CYYZ)
11:39PM 42.0482 -79.4757 98° East 539 620 32,000  Level FlightAware ADS-B (CYYZ)
11:39PM 42.0496 -79.4883 98° East 538 619 32,000  Level FlightAware ADS-B (EPLB / LUZ)
11:39PM 42.0377 -79.3737 98° East 539 620 32,000  Level FlightAware ADS-B (CYYZ)
11:39PM 42.0347 -79.3468 98° East 538 619 32,000  Level FlightAware ADS-B (EPLB / LUZ)
11:40PM 42.0271 -79.2763 98° East 537 618 32,000  Level FlightAware ADS-B (CYYZ)
11:40PM 42.0206 -79.2158 98° East 536 617 32,000  Level FlightAware ADS-B (EPLB / LUZ)
11:40PM 42.0161 -79.1742 98° East 538 619 32,000  Level FlightAware ADS-B (CYYZ)
11:41PM 42.0110 -79.1279 98° East 541 623 32,000  Level FlightAware ADS-B (EPLB / LUZ)
11:41PM 42.0060 -79.0817 98° East 541 623 32,000  Level FlightAware ADS-B (CYYZ)
11:41PM 41.9946 -78.9792 98° East 538 619 32,000  Level FlightAware ADS-B (CYYZ)
11:42PM 41.9836 -78.8785 98° East 536 617 32,000  Level FlightAware ADS-B (CYYZ)
11:42PM 41.9724 -78.7800 99° East 536 617 32,000  Level FlightAware ADS-B (CYYZ)
11:43PM 41.9435 -78.6065 103° East 533 613 32,000  Level FlightAware ADS-B (CYYZ)
11:44PM 41.9267 -78.5099 103° East 533 613 32,000  Level FlightAware ADS-B (CYYZ)
11:44PM 41.9090 -78.4096 103° East 534 615 32,000  Level FlightAware ADS-B (CYYZ)
11:45PM 41.8924 -78.3163 103° East 532 612 32,000  Level FlightAware ADS-B (CYYZ)
11:45PM 41.8750 -78.2189 103° East 531 611 32,000  Level FlightAware ADS-B (CYYZ)
11:46PM 41.8581 -78.1242 103° East 531 611 32,000  Level FlightAware ADS-B (CYYZ)
11:46PM 41.8408 -78.0270 103° East 528 608 32,000  Level FlightAware ADS-B (CYYZ)
11:47PM 41.8232 -77.9306 103° East 528 608 32,000  Level FlightAware ADS-B (CYYZ)
11:47PM 41.8063 -77.8376 103° East 528 608 32,000  Level FlightAware ADS-B (CYYZ)
11:48PM 41.7921 -77.7598 103° East 528 608 32,000  Level FlightAware ADS-B (CYYZ)
11:48PM 41.7752 -77.6680 103° East 527 606 32,000  Level FlightAware ADS-B (CYYZ)
11:49PM 41.7483 -77.5233 103° East 527 606 32,000  Level Cleveland Center
11:50PM 41.7100 -77.3225 104° East 527 606 32,000  Level Cleveland Center
11:51PM 41.6739 -77.1331 104° East 529 609 32,000  Level Cleveland Center
11:52PM 41.6233 -76.9481 110° East 530 610 32,000  Level Cleveland Center
11:53PM 41.5658 -76.7381 110° East 525 604 32,000  Level Cleveland Center
11:54PM 41.5147 -76.5531 110° East 529 609 32,000 -149 Level Cleveland Center
11:55PM 41.4700 -76.3928 110° East 529 609 31,700 -645 Descending Cleveland Center
11:56PM 41.4206 -76.2083 110° East 529 609 30,700 -992 Descending Cleveland Center
11:57PM 41.3692 -76.0283 111° Southeast 527 606 29,700 -992 Descending Cleveland Center
11:58PM 41.3078 -75.8225 112° Southeast 520 598 28,600 -1,238 Descending New York Center
11:59PM 41.2569 -75.6447 111° Southeast 515 593 27,100 -1,850 Descending New York Center
12:00AM 41.2011 -75.4753 114° Southeast 515 593 24,900 -2,050 Descending New York Center
12:01AM 41.1472 -75.3144 114° Southeast 492 566 23,000 -761 Descending New York Center
12:07AM 40.9413 -74.3698 98° East 450 518 19,700 -541 Descending FlightAware ADS-B (KSNC)
12:09AM 40.8829 -74.1406 136° Southeast 405 466 19,000 -768 Descending FlightAware ADS-B (KSNC)
12:09AM 40.8390 -74.0924 150° Southeast 380 437 18,100 -1,926 Descending FlightAware ADS-B (KSNC)
12:10AM 40.7705 -74.0515 157° South 356 410 16,400 -2,176 Descending FlightAware ADS-B (KSNC)
12:11AM 40.7002 -74.0111 156° South 349 402 14,800 -1,939 Descending FlightAware ADS-B (KSNC)
12:13AM 40.5401 -73.8814 145° Southeast 346 398 11,100 -1,880 Descending FlightAware ADS-B (KSNC)
12:13AM 40.5257 -73.8346 112° Southeast 314 361 10,100 -2,256 Descending FlightAware ADS-B (KSNC)
12:15AM 40.4778 -73.6929 115° Southeast 283 326 6,700 -2,081 Descending FlightAware ADS-B (KSNC)
12:15AM 40.4622 -73.6461 115° Southeast 297 342 5,800 -2,063 Descending New York Center
12:16AM 40.4667 -73.6000 83° East 275 316 4,500 -1,750 Descending New York TRACON
12:17AM 40.5500 -73.5833 North 224 258 3,000 -1,100 Descending New York TRACON
12:18AM 40.5833 -73.6167 323° Northwest 188 216 2,300 -588 Descending New York TRACON
12:18AM 40.6000 -73.6500 303° West 139 160 2,000 -636 Descending New York TRACON
12:20AM 40.6167 -73.7167 288° West 135 155 900 -786 Descending New York TRACON

Login

Don't have an account? Register now (free) for customized features, flight alerts, and more!